| time (UTC) | temp F | wind direction | speed MPH | gust MPH | rain 1hr in | rain 24hr in | rain mn in | humidity % | barometer mb |
| 20260505140605 | 82 | 87 | 10.0 | 15.0 | 0.00 | 0.00 | 0.00 | 84 | 1012.5 |
| 20260505125018 | 82 | 81 | 8.0 | 11.0 | 0.00 | 0.03 | 0.03 | 84 | 1012.5 |
| 20260505124515 | 82 | 101 | 10.0 | 13.0 | 0.00 | 0.03 | 0.03 | 84 | 1012.5 |
| 20260505124011 | 82 | 84 | 9.0 | 13.0 | 0.00 | 0.03 | 0.03 | 85 | 1012.5 |
| 20260505123508 | 82 | 98 | 8.0 | 10.0 | 0.00 | 0.03 | 0.03 | 85 | 1012.5 |
| 20260505123004 | 82 | 99 | 5.0 | 7.0 | 0.00 | 0.03 | 0.03 | 85 | 1012.5 |
| 20260505122501 | 82 | 93 | 8.0 | 10.0 | 0.00 | 0.03 | 0.03 | 86 | 1012.5 |
| 20260505121958 | 82 | 88 | 8.0 | 11.0 | 0.00 | 0.03 | 0.03 | 87 | 1012.5 |
| 20260505121454 | 81 | 79 | 7.0 | 8.0 | 0.00 | 0.03 | 0.03 | 87 | 1012.5 |
| 20260505120950 | 81 | 81 | 5.0 | 9.0 | 0.00 | 0.03 | 0.03 | 87 | 1012.5 |
| 20260505120447 | 81 | 71 | 6.0 | 7.0 | 0.00 | 0.03 | 0.03 | 87 | 1012.5 |
| 20260505115946 | 81 | 79 | 7.0 | 8.0 | 0.00 | 0.03 | 0.03 | 86 | 1012.2 |
| 20260505115443 | 81 | 61 | 6.0 | 10.0 | 0.00 | 0.03 | 0.03 | 86 | 1012.5 |
| 20260505114941 | 82 | 72 | 7.0 | 9.0 | 0.00 | 0.03 | 0.03 | 85 | 1012.5 |
| 20260505114437 | 82 | 83 | 7.0 | 9.0 | 0.00 | 0.03 | 0.03 | 85 | 1012.2 |
| 20260505113934 | 82 | 88 | 6.0 | 8.0 | 0.00 | 0.03 | 0.03 | 85 | 1012.2 |
| 20260505113430 | 82 | 99 | 5.0 | 6.0 | 0.00 | 0.03 | 0.03 | 85 | 1012.2 |
| 20260505112926 | 82 | 98 | 6.0 | 7.0 | 0.00 | 0.03 | 0.03 | 85 | 1012.2 |
| 20260505112424 | 82 | 109 | 5.0 | 7.0 | 0.00 | 0.03 | 0.03 | 84 | 1012.2 |
| 20260505111920 | 82 | 93 | 8.0 | 11.0 | 0.00 | 0.03 | 0.03 | 84 | 1012.2 |
| 20260505111415 | 82 | 91 | 8.0 | 11.0 | 0.00 | 0.03 | 0.03 | 84 | 1012.2 |
| 20260505110912 | 82 | 90 | 6.0 | 8.0 | 0.00 | 0.03 | 0.03 | 85 | 1012.2 |
| 20260505110409 | 82 | 83 | 7.0 | 10.0 | 0.00 | 0.03 | 0.03 | 85 | 1012.2 |
| 20260505101839 | 81 | 105 | 6.0 | 7.0 | 0.00 | 0.03 | 0.03 | 84 | 1011.5 |
| 20260505101334 | 81 | 94 | 8.0 | 10.0 | 0.00 | 0.03 | 0.03 | 85 | 1011.5 |
| 20260505100830 | 81 | 94 | 5.0 | 8.0 | 0.00 | 0.03 | 0.03 | 86 | 1011.5 |
| 20260505100327 | 81 | 97 | 5.0 | 6.0 | 0.00 | 0.03 | 0.03 | 85 | 1011.5 |
| 20260505095822 | 81 | 99 | 4.0 | 6.0 | 0.00 | 0.03 | 0.03 | 85 | 1011.1 |
| 20260505095320 | 82 | 92 | 5.0 | 6.0 | 0.00 | 0.03 | 0.03 | 85 | 1011.5 |
| 20260505094816 | 82 | 116 | 5.0 | 6.0 | 0.00 | 0.03 | 0.03 | 84 | 1011.1 |
| 20260505094313 | 82 | 99 | 5.0 | 6.0 | 0.00 | 0.03 | 0.03 | 84 | 1011.1 |
| 20260505093808 | 82 | 91 | 5.0 | 7.0 | 0.00 | 0.03 | 0.03 | 84 | 1011.1 |
| 20260505093307 | 82 | 88 | 6.0 | 8.0 | 0.00 | 0.03 | 0.03 | 83 | 1011.1 |
| 20260505092803 | 82 | 99 | 6.0 | 7.0 | 0.00 | 0.03 | 0.03 | 83 | 1011.1 |
| 20260505092304 | 82 | 81 | 7.0 | 9.0 | 0.00 | 0.03 | 0.03 | 83 | 1011.1 |
| 20260505091758 | 82 | 75 | 7.0 | 9.0 | 0.00 | 0.03 | 0.03 | 82 | 1011.1 |
| 20260505091256 | 82 | 98 | 6.0 | 8.0 | 0.00 | 0.03 | 0.03 | 82 | 1011.1 |
| 20260505090754 | 82 | 102 | 6.0 | 7.0 | 0.00 | 0.03 | 0.03 | 82 | 1010.8 |
| 20260505090252 | 82 | 91 | 8.0 | 9.0 | 0.00 | 0.03 | 0.03 | 82 | 1010.8 |
| 20260505085749 | 83 | 97 | 6.0 | 9.0 | 0.00 | 0.03 | 0.03 | 81 | 1010.5 |
| 20260505085247 | 83 | 90 | 8.0 | 10.0 | 0.00 | 0.03 | 0.03 | 78 | 1010.5 |
| 20260505084744 | 83 | 82 | 8.0 | 10.0 | 0.00 | 0.03 | 0.03 | 79 | 1010.5 |
| 20260505084243 | 83 | 95 | 6.0 | 7.0 | 0.00 | 0.03 | 0.03 | 79 | 1010.5 |
| 20260505083739 | 83 | 101 | 6.0 | 8.0 | 0.00 | 0.03 | 0.03 | 81 | 1010.5 |
| 20260505083236 | 82 | 90 | 7.0 | 9.0 | 0.00 | 0.03 | 0.03 | 81 | 1010.5 |
| 20260505082732 | 83 | 91 | 7.0 | 8.0 | 0.00 | 0.03 | 0.03 | 82 | 1010.1 |
| 20260505082230 | 83 | 65 | 12.0 | 16.0 | 0.00 | 0.03 | 0.03 | 81 | 1010.1 |
| 20260505081725 | 83 | 101 | 10.0 | 13.0 | 0.00 | 0.03 | 0.03 | 81 | 1010.1 |
| 20260505081223 | 84 | 95 | 12.0 | 16.0 | 0.00 | 0.03 | 0.03 | 80 | 1010.1 |
| 20260505080720 | 84 | 109 | 10.0 | 14.0 | 0.00 | 0.03 | 0.03 | 78 | 1010.1 |
| 20260505080215 | 84 | 108 | 9.0 | 13.0 | 0.00 | 0.03 | 0.03 | 78 | 1010.1 |
| 20260505075711 | 84 | 102 | 8.0 | 10.0 | 0.00 | 0.03 | 0.03 | 78 | 1010.1 |
| 20260505075209 | 84 | 110 | 6.0 | 11.0 | 0.00 | 0.03 | 0.03 | 78 | 1009.8 |
| 20260505074706 | 84 | 99 | 7.0 | 9.0 | 0.00 | 0.03 | 0.03 | 77 | 1009.8 |
| 20260505074202 | 85 | 90 | 9.0 | 13.0 | 0.00 | 0.03 | 0.03 | 77 | 1009.8 |
| 20260505073700 | 85 | 86 | 7.0 | 10.0 | 0.00 | 0.03 | 0.03 | 76 | 1009.8 |
| 20260505073158 | 85 | 102 | 3.0 | 7.0 | 0.00 | 0.03 | 0.03 | 77 | 1009.8 |
| 20260505072653 | 85 | 95 | 7.0 | 9.0 | 0.00 | 0.03 | 0.03 | 77 | 1009.8 |
| 20260505072150 | 85 | 108 | 8.0 | 11.0 | 0.00 | 0.03 | 0.03 | 77 | 1010.1 |
| 20260505071646 | 85 | 102 | 5.0 | 8.0 | 0.00 | 0.03 | 0.03 | 77 | 1009.8 |
| 20260505071144 | 85 | 114 | 6.0 | 8.0 | 0.00 | 0.03 | 0.03 | 76 | 1009.8 |
| 20260505070641 | 86 | 93 | 8.0 | 11.0 | 0.00 | 0.03 | 0.03 | 74 | 1009.8 |
| 20260505070137 | 86 | 134 | 5.0 | 6.0 | 0.00 | 0.03 | 0.03 | 73 | 1009.8 |
| 20260505065633 | 86 | 119 | 8.0 | 13.0 | 0.00 | 0.03 | 0.03 | 72 | 1009.8 |
| 20260505065130 | 86 | 100 | 10.0 | 13.0 | 0.00 | 0.03 | 0.03 | 73 | 1009.8 |
| 20260505064627 | 86 | 90 | 10.0 | 13.0 | 0.00 | 0.03 | 0.03 | 73 | 1009.8 |
| 20260505064125 | 86 | 100 | 7.0 | 11.0 | 0.00 | 0.03 | 0.03 | 72 | 1009.8 |
| 20260505063622 | 86 | 104 | 9.0 | 12.0 | 0.00 | 0.03 | 0.03 | 72 | 1009.8 |
| 20260505063118 | 86 | 105 | 7.0 | 12.0 | 0.00 | 0.03 | 0.03 | 73 | 1009.8 |
| 20260505062614 | 86 | 93 | 7.0 | 9.0 | 0.00 | 0.03 | 0.03 | 74 | 1009.8 |
| 20260505062112 | 85 | 116 | 5.0 | 9.0 | 0.00 | 0.03 | 0.03 | 75 | 1009.8 |
| 20260505061609 | 86 | 108 | 9.0 | 12.0 | 0.00 | 0.03 | 0.03 | 75 | 1009.8 |
| 20260505061107 | 86 | 100 | 7.0 | 10.0 | 0.00 | 0.03 | 0.03 | 75 | 1009.8 |
| 20260505060604 | 86 | 121 | 9.0 | 12.0 | 0.00 | 0.03 | 0.03 | 75 | 1009.8 |
| 20260505055556 | 85 | 129 | 6.0 | 10.0 | 0.00 | 0.03 | 0.03 | 75 | 1009.8 |
| 20260505055053 | 86 | 87 | 9.0 | 12.0 | 0.00 | 0.03 | 0.03 | 75 | 1009.8 |
| 20260505054550 | 86 | 121 | 5.0 | 11.0 | 0.00 | 0.03 | 0.03 | 74 | 1009.8 |
| 20260505054049 | 86 | 121 | 8.0 | 11.0 | 0.00 | 0.03 | 0.03 | 73 | 1009.8 |
| 20260505053545 | 86 | 109 | 8.0 | 10.0 | 0.00 | 0.03 | 0.03 | 73 | 1009.8 |
| 20260505053042 | 86 | 76 | 6.0 | 12.0 | 0.00 | 0.03 | 0.03 | 73 | 1009.8 |
| 20260505052539 | 86 | 130 | 6.0 | 10.0 | 0.00 | 0.03 | 0.03 | 73 | 1010.1 |
| 20260505052037 | 86 | 122 | 9.0 | 13.0 | 0.00 | 0.03 | 0.03 | 73 | 1010.1 |
| 20260505051533 | 86 | 150 | 4.0 | 7.0 | 0.00 | 0.03 | 0.03 | 73 | 1010.1 |
| 20260505051031 | 86 | 100 | 6.0 | 8.0 | 0.00 | 0.03 | 0.03 | 73 | 1010.1 |
| 20260505050529 | 86 | 125 | 9.0 | 13.0 | 0.00 | 0.03 | 0.03 | 72 | 1010.5 |
| 20260505041457 | 87 | 137 | 6.0 | 10.0 | 0.00 | 0.03 | 0.03 | 72 | 1010.5 |
| 20260505040954 | 87 | 127 | 9.0 | 13.0 | 0.00 | 0.03 | 0.03 | 72 | 1010.5 |
| 20260505040451 | 88 | 153 | 4.0 | 13.0 | 0.00 | 0.03 | 0.03 | 71 | 1010.5 |
| 20260505035948 | 87 | 100 | 8.0 | 12.0 | 0.00 | 0.03 | 0.03 | 72 | 1010.5 |
| 20260505035444 | 87 | 109 | 10.0 | 13.0 | 0.00 | 0.03 | 0.03 | 72 | 1010.5 |
| 20260505034941 | 87 | 109 | 10.0 | 15.0 | 0.00 | 0.03 | 0.03 | 72 | 1010.5 |
| 20260505034438 | 87 | 118 | 8.0 | 13.0 | 0.00 | 0.03 | 0.03 | 73 | 1010.5 |
| 20260505033935 | 87 | 104 | 11.0 | 17.0 | 0.00 | 0.03 | 0.03 | 73 | 1010.5 |
| 20260505033432 | 86 | 112 | 11.0 | 17.0 | 0.00 | 0.03 | 0.03 | 73 | 1010.8 |
| 20260505032930 | 87 | 113 | 5.0 | 8.0 | 0.00 | 0.03 | 0.03 | 74 | 1010.8 |
| 20260505032427 | 87 | 119 | 9.0 | 13.0 | 0.00 | 0.03 | 0.03 | 74 | 1010.8 |
| 20260505031923 | 87 | 96 | 6.0 | 9.0 | 0.00 | 0.03 | 0.03 | 74 | 1010.8 |
| 20260505031420 | 87 | 127 | 6.0 | 8.0 | 0.00 | 0.03 | 0.03 | 75 | 1011.1 |
| 20260505030917 | 86 | 98 | 9.0 | 12.0 | 0.00 | 0.03 | 0.03 | 74 | 1011.1 |
| 20260505030413 | 87 | 105 | 9.0 | 17.0 | 0.00 | 0.03 | 0.03 | 73 | 1011.1 |
| 20260505025908 | 86 | 113 | 10.0 | 14.0 | 0.00 | 0.03 | 0.03 | 75 | 1011.1 |
| 20260505025406 | 86 | 94 | 7.0 | 9.0 | 0.00 | 0.03 | 0.03 | 75 | 1011.1 |
| 20260505024905 | 86 | 114 | 10.0 | 13.0 | 0.00 | 0.03 | 0.03 | 74 | 1011.1 |
| 20260505024402 | 86 | 115 | 12.0 | 17.0 | 0.00 | 0.03 | 0.03 | 74 | 1011.1 |
| 20260505023859 | 86 | 91 | 11.0 | 14.0 | 0.00 | 0.03 | 0.03 | 74 | 1011.1 |
| 20260505023356 | 87 | 82 | 12.0 | 16.0 | 0.00 | 0.03 | 0.03 | 73 | 1011.1 |
| 20260505022853 | 87 | 110 | 10.0 | 18.0 | 0.00 | 0.03 | 0.03 | 73 | 1011.1 |
| 20260505022350 | 87 | 95 | 11.0 | 16.0 | 0.00 | 0.03 | 0.03 | 73 | 1011.1 |
| 20260505021848 | 87 | 93 | 13.0 | 17.0 | 0.00 | 0.03 | 0.03 | 73 | 1011.5 |
| 20260505021344 | 87 | 119 | 10.0 | 15.0 | 0.00 | 0.03 | 0.03 | 73 | 1011.5 |
| 20260505020840 | 87 | 111 | 9.0 | 13.0 | 0.00 | 0.03 | 0.03 | 73 | 1011.5 |
| 20260505020335 | 87 | 99 | 11.0 | 15.0 | 0.00 | 0.03 | 0.03 | 72 | 1011.5 |
| 20260505015832 | 87 | 103 | 8.0 | 11.0 | 0.00 | 0.03 | 0.03 | 73 | 1011.8 |
| 20260505015329 | 86 | 79 | 9.0 | 13.0 | 0.00 | 0.03 | 0.03 | 73 | 1011.8 |
| 20260505014827 | 86 | 96 | 12.0 | 16.0 | 0.00 | 0.03 | 0.03 | 72 | 1011.5 |
| 20260505014324 | 87 | 89 | 9.0 | 14.0 | 0.00 | 0.03 | 0.03 | 72 | 1011.8 |
| 20260505013820 | 87 | 114 | 11.0 | 17.0 | 0.00 | 0.03 | 0.03 | 73 | 1011.8 |
| 20260505013317 | 87 | 103 | 10.0 | 16.0 | 0.00 | 0.03 | 0.03 | 72 | 1011.8 |
| 20260505012816 | 87 | 97 | 11.0 | 16.0 | 0.00 | 0.03 | 0.03 | 72 | 1011.8 |
| 20260505012313 | 87 | 97 | 10.0 | 16.0 | 0.00 | 0.03 | 0.03 | 73 | 1011.8 |
| 20260505011809 | 87 | 111 | 9.0 | 13.0 | 0.00 | 0.03 | 0.03 | 73 | 1012.2 |
| 20260505011306 | 87 | 113 | 9.0 | 14.0 | 0.00 | 0.03 | 0.03 | 73 | 1011.8 |
| 20260505010802 | 87 | 104 | 10.0 | 15.0 | 0.00 | 0.03 | 0.03 | 73 | 1011.8 |
| 20260505010258 | 86 | 100 | 11.0 | 16.0 | 0.00 | 0.03 | 0.03 | 73 | 1011.8 |
| 20260505005754 | 87 | 105 | 10.0 | 15.0 | 0.00 | 0.03 | 0.03 | 73 | 1011.8 |
| 20260505005252 | 86 | 113 | 12.0 | 16.0 | 0.00 | 0.03 | 0.03 | 73 | 1011.8 |
| 20260505004749 | 86 | 100 | 12.0 | 16.0 | 0.00 | 0.03 | 0.03 | 73 | 1012.2 |
| 20260505004245 | 87 | 111 | 10.0 | 15.0 | 0.00 | 0.03 | 0.03 | 73 | 1012.2 |
| 20260505003742 | 86 | 100 | 9.0 | 14.0 | 0.00 | 0.03 | 0.03 | 74 | 1012.2 |
| 20260505003240 | 86 | 96 | 11.0 | 16.0 | 0.00 | 0.03 | 0.03 | 74 | 1012.2 |
| 20260505002736 | 86 | 112 | 10.0 | 14.0 | 0.00 | 0.03 | 0.03 | 74 | 1012.2 |
| 20260505002233 | 86 | 94 | 10.0 | 15.0 | 0.00 | 0.03 | 0.03 | 74 | 1012.2 |
| 20260505001731 | 86 | 89 | 12.0 | 18.0 | 0.00 | 0.03 | 0.03 | 74 | 1012.2 |
| 20260505001228 | 86 | 113 | 12.0 | 18.0 | 0.00 | 0.03 | 0.03 | 76 | 1012.2 |
| 20260505000725 | 86 | 100 | 9.0 | 13.0 | 0.00 | 0.03 | 0.03 | 77 | 1012.2 |
| 20260505000223 | 85 | 122 | 9.0 | 15.0 | 0.00 | 0.03 | 0.03 | 79 | 1012.2 |
| 20260504235719 | 84 | 100 | 7.0 | 10.0 | 0.00 | 0.03 | 0.03 | 80 | 1012.2 |
| 20260504235215 | 84 | 121 | 6.0 | 9.0 | 0.00 | 0.03 | 0.03 | 81 | 1012.5 |
| 20260504234713 | 84 | 114 | 8.0 | 11.0 | 0.00 | 0.03 | 0.03 | 82 | 1012.2 |
| 20260504234210 | 84 | 136 | 5.0 | 9.0 | 0.00 | 0.03 | 0.03 | 82 | 1012.2 |
| 20260504233706 | 85 | 126 | 7.0 | 10.0 | 0.00 | 0.03 | 0.03 | 81 | 1012.2 |
| 20260504233202 | 85 | 126 | 9.0 | 12.0 | 0.00 | 0.03 | 0.03 | 81 | 1012.2 |
| 20260504232700 | 85 | 137 | 7.0 | 11.0 | 0.00 | 0.03 | 0.03 | 80 | 1012.2 |
| 20260504232156 | 86 | 129 | 8.0 | 12.0 | 0.00 | 0.03 | 0.03 | 79 | 1012.2 |
| 20260504231653 | 85 | 139 | 7.0 | 11.0 | 0.00 | 0.03 | 0.03 | 79 | 1012.5 |
| 20260504231149 | 85 | 127 | 8.0 | 12.0 | 0.00 | 0.03 | 0.03 | 79 | 1012.5 |
| 20260504230646 | 85 | 120 | 5.0 | 7.0 | 0.00 | 0.03 | 0.03 | 80 | 1012.2 |
| 20260504230145 | 84 | 129 | 8.0 | 12.0 | 0.00 | 0.03 | 0.03 | 80 | 1012.2 |
| 20260504225643 | 83 | 136 | 6.0 | 9.0 | 0.00 | 0.03 | 0.03 | 82 | 1012.2 |
| 20260504225138 | 83 | 147 | 6.0 | 7.0 | 0.00 | 0.03 | 0.03 | 83 | 1012.2 |
| 20260504224635 | 83 | 159 | 5.0 | 7.0 | 0.00 | 0.03 | 0.03 | 83 | 1012.2 |
| 20260504224132 | 82 | 142 | 7.0 | 9.0 | 0.00 | 0.03 | 0.03 | 83 | 1012.2 |
| 20260504223629 | 82 | 144 | 6.0 | 9.0 | 0.00 | 0.03 | 0.03 | 83 | 1012.2 |
| 20260504223120 | 82 | 132 | 6.0 | 9.0 | 0.00 | 0.03 | 0.03 | 83 | 1012.2 |
| 20260504222617 | 82 | 129 | 5.0 | 8.0 | 0.00 | 0.03 | 0.03 | 83 | 1012.2 |
| 20260504222114 | 82 | 138 | 4.0 | 6.0 | 0.00 | 0.03 | 0.03 | 82 | 1012.2 |
| 20260504221611 | 82 | 142 | 7.0 | 11.0 | 0.00 | 0.03 | 0.03 | 82 | 1012.2 |
| 20260504221108 | 82 | 140 | 7.0 | 9.0 | 0.00 | 0.03 | 0.03 | 83 | 1012.2 |
| 20260504220604 | 81 | 144 | 4.0 | 8.0 | 0.00 | 0.03 | 0.03 | 84 | 1012.2 |
| 20260504215558 | 80 | 152 | 5.0 | 8.0 | 0.00 | 0.03 | 0.03 | 87 | 1012.2 |
| 20260504215056 | 80 | 142 | 6.0 | 10.0 | 0.00 | 0.03 | 0.03 | 88 | 1012.2 |
| 20260504214551 | 80 | 121 | 8.0 | 11.0 | 0.00 | 0.03 | 0.03 | 88 | 1012.2 |
| 20260504214048 | 79 | 131 | 5.0 | 8.0 | 0.00 | 0.02 | 0.02 | 88 | 1012.2 |
| 20260504213544 | 79 | 125 | 8.0 | 11.0 | 0.00 | 0.02 | 0.02 | 88 | 1012.2 |
| 20260504213041 | 79 | 134 | 7.0 | 10.0 | 0.00 | 0.02 | 0.02 | 87 | 1012.2 |
| 20260504212537 | 80 | 115 | 14.0 | 21.0 | 0.47 | 0.00 | 0.00 | 85 | 1012.2 |
| 20260504212035 | 81 | 141 | 11.0 | 16.0 | 0.00 | 0.00 | 0.00 | 85 | 1012.2 |
| 20260504211531 | 82 | 120 | 6.0 | 10.0 | 0.00 | 0.00 | 0.00 | 85 | 1012.2 |
| 20260504211029 | 82 | 124 | 8.0 | 14.0 | 0.00 | 0.00 | 0.00 | 85 | 1011.8 |
| 20260504210525 | 82 | 122 | 8.0 | 13.0 | 0.00 | 0.00 | 0.00 | 86 | 1011.8 |
| 20260504210022 | 82 | 131 | 6.0 | 9.0 | 0.00 | 0.00 | 0.00 | 85 | 1012.2 |
| 20260504205520 | 82 | 129 | 9.0 | 13.0 | 0.00 | 0.00 | 0.00 | 86 | 1011.8 |
| 20260504205018 | 82 | 127 | 10.0 | 16.0 | 0.00 | 0.00 | 0.00 | 86 | 1011.8 |
| 20260504204516 | 81 | 136 | 11.0 | 15.0 | 0.00 | 0.00 | 0.00 | 86 | 1011.8 |
| 20260504204015 | 81 | 130 | 9.0 | 12.0 | 0.00 | 0.00 | 0.00 | 86 | 1011.5 |
| 20260504203512 | 81 | 128 | 7.0 | 10.0 | 0.00 | 0.00 | 0.00 | 86 | 1011.5 |
| 20260504203009 | 81 | 127 | 8.0 | 12.0 | 0.00 | 0.00 | 0.00 | 86 | 1011.5 |
| 20260504202505 | 82 | 125 | 9.0 | 12.0 | 0.00 | 0.00 | 0.00 | 86 | 1011.5 |
| 20260504202001 | 81 | 131 | 8.0 | 17.0 | 0.00 | 0.00 | 0.00 | 86 | 1011.5 |
| 20260504201459 | 81 | 117 | 11.0 | 15.0 | 0.00 | 0.00 | 0.00 | 86 | 1011.1 |
| 20260504200956 | 81 | 140 | 7.0 | 10.0 | 0.00 | 0.00 | 0.00 | 85 | 1011.1 |
| 20260504200453 | 81 | 128 | 10.0 | 12.0 | 0.00 | 0.00 | 0.00 | 85 | 1011.1 |
| 20260504195949 | 81 | 126 | 9.0 | 13.0 | 0.00 | 0.00 | 0.00 | 84 | 1011.1 |
| 20260504195445 | 81 | 123 | 13.0 | 19.0 | 0.00 | 0.00 | 0.00 | 84 | 1011.1 |
| 20260504194942 | 81 | 128 | 9.0 | 14.0 | 0.00 | 0.00 | 0.00 | 84 | 1011.1 |
| 20260504194438 | 81 | 125 | 11.0 | 15.0 | 0.00 | 0.00 | 0.00 | 84 | 1011.1 |
| 20260504193934 | 81 | 123 | 9.0 | 14.0 | 0.00 | 0.00 | 0.00 | 84 | 1011.1 |
| 20260504193432 | 81 | 119 | 13.0 | 20.0 | 0.00 | 0.00 | 0.00 | 83 | 1011.1 |
| 20260504192930 | 81 | 124 | 9.0 | 14.0 | 0.00 | 0.00 | 0.00 | 84 | 1011.1 |
| 20260504192427 | 81 | 118 | 11.0 | 16.0 | 0.00 | 0.00 | 0.00 | 86 | 1011.1 |
| 20260504191926 | 81 | 134 | 10.0 | 14.0 | 0.00 | 0.00 | 0.00 | 86 | 1011.1 |
| 20260504191424 | 81 | 134 | 9.0 | 13.0 | 0.00 | 0.00 | 0.00 | 86 | 1011.1 |
| 20260504190919 | 81 | 128 | 9.0 | 15.0 | 0.00 | 0.00 | 0.00 | 87 | 1010.8 |
| 20260504190414 | 81 | 117 | 9.0 | 15.0 | 0.00 | 0.00 | 0.00 | 87 | 1010.8 |
| 20260504185911 | 81 | 125 | 9.0 | 14.0 | 0.00 | 0.00 | 0.00 | 87 | 1010.5 |
| 20260504185409 | 81 | 121 | 8.0 | 12.0 | 0.00 | 0.00 | 0.00 | 87 | 1010.5 |
| 20260504184904 | 80 | 123 | 9.0 | 11.0 | 0.00 | 0.00 | 0.00 | 86 | 1010.5 |
| 20260504184400 | 80 | 127 | 7.0 | 10.0 | 0.00 | 0.00 | 0.00 | 86 | 1010.5 |
| 20260504183856 | 80 | 135 | 6.0 | 9.0 | 0.00 | 0.00 | 0.00 | 86 | 1010.5 |
| 20260504183354 | 80 | 132 | 10.0 | 16.0 | 0.00 | 0.00 | 0.00 | 87 | 1010.5 |
| 20260504182852 | 80 | 132 | 8.0 | 12.0 | 0.00 | 0.00 | 0.00 | 87 | 1010.5 |
| 20260504182349 | 80 | 123 | 8.0 | 12.0 | 0.00 | 0.00 | 0.00 | 87 | 1010.5 |
| 20260504181845 | 81 | 131 | 8.0 | 13.0 | 0.00 | 0.00 | 0.00 | 87 | 1010.5 |
| 20260504181343 | 81 | 120 | 9.0 | 13.0 | 0.00 | 0.00 | 0.00 | 87 | 1010.5 |
| 20260504180842 | 81 | 114 | 10.0 | 13.0 | 0.00 | 0.00 | 0.00 | 87 | 1010.5 |
| 20260504180340 | 81 | 103 | 8.0 | 11.0 | 0.00 | 0.00 | 0.00 | 88 | 1010.5 |
| 20260504175838 | 81 | 119 | 8.0 | 12.0 | 0.00 | 0.00 | 0.00 | 88 | 1010.8 |
| 20260504175334 | 81 | 109 | 10.0 | 15.0 | 0.00 | 0.00 | 0.00 | 88 | 1010.5 |
| 20260504174832 | 81 | 113 | 7.0 | 8.0 | 0.00 | 0.00 | 0.00 | 88 | 1010.8 |
| 20260504174329 | 81 | 102 | 9.0 | 12.0 | 0.00 | 0.00 | 0.00 | 88 | 1010.8 |
| 20260504173826 | 81 | 99 | 8.0 | 11.0 | 0.00 | 0.00 | 0.00 | 88 | 1010.8 |
| 20260504173323 | 81 | 103 | 9.0 | 13.0 | 0.00 | 0.00 | 0.00 | 88 | 1010.8 |
| 20260504172820 | 81 | 100 | 9.0 | 13.0 | 0.00 | 0.00 | 0.00 | 88 | 1010.8 |
| 20260504172317 | 81 | 95 | 10.0 | 13.0 | 0.00 | 0.00 | 0.00 | 87 | 1010.8 |
| 20260504171812 | 81 | 93 | 9.0 | 12.0 | 0.00 | 0.00 | 0.00 | 88 | 1010.8 |
| 20260504171310 | 81 | 93 | 8.0 | 10.0 | 0.00 | 0.00 | 0.00 | 87 | 1010.8 |
| 20260504170807 | 81 | 86 | 7.0 | 12.0 | 0.00 | 0.00 | 0.00 | 87 | 1010.8 |
| 20260504170304 | 81 | 110 | 10.0 | 14.0 | 0.00 | 0.00 | 0.00 | 87 | 1010.8 |
| 20260504160222 | 82 | 105 | 8.0 | 11.0 | 0.00 | 0.00 | 0.00 | 84 | 1011.1 |
| 20260504150652 | 82 | 116 | 6.0 | 9.0 | 0.00 | 0.00 | 0.00 | 86 | 1011.5 |
| 20260504150149 | 82 | 117 | 9.0 | 13.0 | 0.00 | 0.00 | 0.00 | 86 | 1011.5 |